TALON29 KNIP-KNIP

Flight info

Callsign TALON29
Flight time N/A
Altitude 32000
Route KNIP DCT HEBIN DCT JAWSS DCT TOMMZ DCT BAAYY HOLD BAAYY DCT PUNGO DCT PITRW DCT BASLE HOTAR1 KNIP
Aircraft P8/M-V/N

Departure

Time 2026-04-23 23:39
Airport Jacksonville Naval Air Station (Towers Field) (KNIP)

Arrival

Time N/A
Airport Jacksonville Naval Air Station (Towers Field) (KNIP)
Time Latitude Longitude Altitude Speed Heading
2026-04-23 23:27 30.22876 -81.68017 24 ft 0 kts 269°
2026-04-23 23:33 30.22892 -81.68050 24 ft 6 kts 338°
2026-04-23 23:33 30.22937 -81.68055 24 ft 9 kts 357°
2026-04-23 23:33 30.22965 -81.68079 24 ft 4 kts 272°
2026-04-23 23:34 30.22963 -81.68158 25 ft 14 kts 268°
2026-04-23 23:34 30.22963 -81.68265 25 ft 12 kts 277°
2026-04-23 23:34 30.22973 -81.68363 25 ft 11 kts 275°
2026-04-23 23:34 30.22981 -81.68461 26 ft 14 kts 277°
2026-04-23 23:35 30.23028 -81.68587 26 ft 18 kts 268°
2026-04-23 23:35 30.23024 -81.68734 26 ft 17 kts 268°
2026-04-23 23:35 30.23022 -81.68877 26 ft 17 kts 270°
2026-04-23 23:35 30.23047 -81.68944 26 ft 7 kts 346°
2026-04-23 23:36 30.23059 -81.68946 26 ft 0 kts 353°
2026-04-23 23:38 30.23066 -81.68947 26 ft 4 kts 353°
2026-04-23 23:38 30.23144 -81.68945 25 ft 11 kts 42°
2026-04-23 23:38 30.23162 -81.68861 26 ft 10 kts 89°
2026-04-23 23:39 30.23164 -81.68642 26 ft 67 kts 90°
2026-04-23 23:39 30.23168 -81.67738 24 ft 154 kts 90°
2026-04-23 23:39 30.23210 -81.66314 513 ft 189 kts 89°
2026-04-23 23:39 30.23273 -81.64749 1170 ft 204 kts 90°
2026-04-23 23:40 30.23323 -81.63095 1806 ft 207 kts 90°
2026-04-23 23:40 30.23352 -81.61415 2469 ft 215 kts 93°
2026-04-23 23:40 30.23273 -81.59609 3144 ft 239 kts 94°
2026-04-23 23:40 30.23198 -81.57622 3801 ft 257 kts 92°
2026-04-23 23:41 30.23171 -81.55508 4459 ft 266 kts 91°
2026-04-23 23:41 30.23171 -81.53378 5107 ft 271 kts 91°
2026-04-23 23:41 30.23179 -81.51177 5765 ft 275 kts 91°
2026-04-23 23:41 30.23184 -81.48965 6421 ft 279 kts 91°
2026-04-23 23:42 30.23185 -81.46716 7082 ft 281 kts 91°
2026-04-23 23:42 30.23186 -81.44466 7743 ft 283 kts 91°
2026-04-23 23:42 30.23185 -81.42188 8406 ft 286 kts 91°
2026-04-23 23:42 30.23184 -81.39887 9070 ft 285 kts 91°
2026-04-23 23:43 30.23183 -81.37587 9735 ft 289 kts 91°
2026-04-23 23:43 30.23180 -81.35284 10388 ft 293 kts 91°
2026-04-23 23:43 30.23177 -81.32909 11053 ft 296 kts 91°
2026-04-23 23:43 30.23175 -81.30506 11687 ft 309 kts 90°
2026-04-23 23:44 30.23172 -81.27953 12333 ft 325 kts 90°
2026-04-23 23:44 30.23285 -81.25311 12881 ft 342 kts 82°
2026-04-23 23:44 30.23964 -81.22617 13476 ft 356 kts 65°
2026-04-23 23:44 30.25106 -81.20046 13991 ft 372 kts 60°
2026-04-23 23:45 30.26451 -81.17385 14482 ft 390 kts 59°
2026-04-23 23:45 30.27864 -81.14626 14964 ft 405 kts 59°
2026-04-23 23:45 30.29270 -81.11812 15735 ft 413 kts 60°
2026-04-23 23:45 30.30684 -81.08897 16518 ft 419 kts 60°
2026-04-23 23:46 30.32099 -81.05922 17273 ft 424 kts 61°
2026-04-23 23:46 30.33506 -81.02928 18020 ft 429 kts 61°
2026-04-23 23:46 30.34931 -80.99882 18776 ft 433 kts 61°
2026-04-23 23:46 30.36371 -80.96795 19501 ft 438 kts 61°
2026-04-23 23:47 30.37827 -80.93671 20208 ft 442 kts 61°
2026-04-23 23:47 30.39274 -80.90567 20901 ft 446 kts 61°
2026-04-23 23:47 30.40765 -80.87368 21596 ft 450 kts 61°
2026-04-23 23:47 30.42252 -80.84209 22228 ft 454 kts 60°
2026-04-23 23:48 30.43867 -80.81014 22826 ft 459 kts 57°
2026-04-23 23:48 30.45723 -80.78052 23495 ft 461 kts 50°
2026-04-23 23:48 30.47888 -80.75275 24109 ft 465 kts 45°
2026-04-23 23:48 30.50174 -80.72655 24740 ft 469 kts 43°
2026-04-23 23:49 30.55063 -80.67481 25861 ft 479 kts 41°
2026-04-23 23:49 30.57532 -80.64933 26437 ft 483 kts 41°
2026-04-23 23:49 30.60059 -80.62316 27027 ft 485 kts 41°
2026-04-23 23:50 30.62526 -80.59739 27926 ft 481 kts 41°
2026-04-23 23:50 30.65003 -80.57127 28715 ft 479 kts 41°
2026-04-23 23:50 30.67469 -80.54509 29384 ft 479 kts 41°
2026-04-23 23:50 30.69902 -80.51910 30056 ft 478 kts 41°
2026-04-23 23:51 30.72349 -80.49287 30681 ft 478 kts 41°
2026-04-23 23:51 30.74794 -80.46661 31312 ft 476 kts 41°
2026-04-23 23:51 30.77203 -80.44069 31893 ft 475 kts 41°
2026-04-23 23:51 30.79656 -80.41426 32054 ft 479 kts 41°
2026-04-23 23:52 30.84507 -80.36194 32073 ft 472 kts 41°
2026-04-23 23:52 30.89343 -80.30970 32073 ft 473 kts 41°
2026-04-23 23:53 30.94170 -80.25748 32073 ft 473 kts 41°
2026-04-23 23:53 30.98990 -80.20528 32071 ft 473 kts 41°
2026-04-23 23:54 31.03807 -80.15303 32073 ft 472 kts 41°
2026-04-23 23:54 31.08611 -80.10085 32071 ft 472 kts 41°
2026-04-23 23:55 31.13407 -80.04867 32072 ft 472 kts 41°
2026-04-23 23:55 31.18221 -79.99625 32070 ft 472 kts 41°
2026-04-23 23:56 31.23004 -79.94408 32073 ft 472 kts 41°
2026-04-23 23:56 31.27794 -79.89174 32074 ft 471 kts 41°
2026-04-23 23:57 31.32575 -79.83941 32071 ft 471 kts 41°
2026-04-23 23:57 31.37358 -79.78700 32077 ft 471 kts 41°
2026-04-23 23:58 31.42137 -79.73457 32075 ft 471 kts 41°
2026-04-23 23:58 31.46906 -79.68215 32078 ft 472 kts 41°
2026-04-23 23:59 31.51675 -79.62967 32073 ft 470 kts 41°
2026-04-23 23:59 31.56442 -79.57713 32077 ft 470 kts 41°
2026-04-24 00:00 31.61208 -79.52453 32077 ft 469 kts 41°
2026-04-24 00:00 31.65946 -79.47216 32074 ft 468 kts 41°
2026-04-24 00:01 31.70680 -79.41975 32074 ft 470 kts 41°
2026-04-24 00:01 31.75428 -79.36710 32074 ft 470 kts 41°
2026-04-24 00:02 31.80193 -79.31422 32075 ft 469 kts 42°
2026-04-24 00:02 31.84962 -79.26119 32073 ft 469 kts 42°
2026-04-24 00:03 31.89682 -79.20865 32075 ft 470 kts 42°
2026-04-24 00:03 31.94451 -79.15546 32074 ft 471 kts 42°
2026-04-24 00:04 31.99168 -79.10278 32071 ft 470 kts 41°
2026-04-24 00:04 32.03936 -79.04942 32069 ft 470 kts 41°
2026-04-24 00:05 32.08678 -78.99630 32071 ft 470 kts 42°
2026-04-24 00:05 32.13422 -78.94306 32067 ft 470 kts 41°
2026-04-24 00:06 32.18176 -78.88964 32069 ft 470 kts 41°
2026-04-24 00:06 32.22906 -78.83641 32068 ft 469 kts 41°
2026-04-24 00:07 32.27631 -78.78317 32069 ft 468 kts 41°
2026-04-24 00:07 32.32324 -78.73021 32065 ft 468 kts 41°
2026-04-24 00:08 32.37027 -78.67704 32063 ft 467 kts 41°
2026-04-24 00:08 32.41728 -78.62382 32065 ft 467 kts 41°
2026-04-24 00:09 32.46410 -78.57073 32060 ft 466 kts 41°
2026-04-24 00:09 32.51085 -78.51765 32059 ft 466 kts 41°
2026-04-24 00:10 32.55786 -78.46420 32062 ft 466 kts 41°
2026-04-24 00:10 32.60475 -78.41079 32060 ft 467 kts 41°
2026-04-24 00:11 32.65138 -78.35757 32059 ft 466 kts 41°
2026-04-24 00:11 32.69809 -78.30418 32058 ft 466 kts 42°
2026-04-24 00:12 32.74484 -78.25070 32057 ft 466 kts 42°
2026-04-24 00:12 32.79167 -78.19704 32055 ft 465 kts 42°
2026-04-24 00:13 32.83818 -78.14367 32054 ft 465 kts 42°
2026-04-24 00:13 32.88468 -78.09023 32058 ft 465 kts 42°
2026-04-24 00:14 32.93104 -78.03687 32051 ft 464 kts 42°
2026-04-24 00:14 32.97733 -77.98350 32052 ft 463 kts 42°
2026-04-24 00:15 33.02383 -77.92979 32049 ft 464 kts 42°
2026-04-24 00:15 33.07018 -77.87618 32049 ft 465 kts 42°
2026-04-24 00:16 33.11681 -77.82217 32047 ft 465 kts 42°
2026-04-24 00:16 33.16337 -77.76815 32045 ft 465 kts 42°
2026-04-24 00:17 33.20944 -77.71460 32045 ft 463 kts 42°
2026-04-24 00:17 33.25574 -77.66071 32046 ft 462 kts 42°
2026-04-24 00:18 33.30161 -77.60723 32044 ft 463 kts 42°
2026-04-24 00:18 33.34758 -77.55357 32042 ft 463 kts 42°
2026-04-24 00:19 33.39361 -77.49977 32042 ft 464 kts 42°
2026-04-24 00:19 33.43990 -77.44558 32041 ft 464 kts 42°
2026-04-24 00:20 33.48582 -77.39172 32039 ft 464 kts 42°
2026-04-24 00:20 33.53177 -77.33775 32039 ft 463 kts 42°
2026-04-24 00:21 33.57803 -77.28332 32041 ft 462 kts 42°
2026-04-24 00:21 33.62362 -77.22958 32037 ft 462 kts 42°
2026-04-24 00:22 33.66950 -77.17544 32035 ft 463 kts 42°
2026-04-24 00:22 33.71558 -77.12096 32034 ft 463 kts 42°
2026-04-24 00:23 33.76113 -77.06701 32034 ft 462 kts 42°
2026-04-24 00:23 33.80681 -77.01284 32035 ft 462 kts 42°
2026-04-24 00:24 33.85252 -76.95854 32035 ft 462 kts 42°
2026-04-24 00:24 33.89831 -76.90408 32033 ft 463 kts 42°
2026-04-24 00:25 33.94411 -76.84951 32032 ft 463 kts 42°
2026-04-24 00:25 33.98978 -76.79501 32030 ft 463 kts 42°
2026-04-24 00:26 34.03520 -76.74071 32024 ft 462 kts 42°
2026-04-24 00:26 34.08080 -76.68613 32021 ft 461 kts 42°
2026-04-24 00:27 34.12635 -76.63150 32012 ft 461 kts 42°
2026-04-24 00:27 34.17187 -76.57684 32006 ft 462 kts 42°
2026-04-24 00:28 34.21730 -76.52217 32001 ft 463 kts 42°
2026-04-24 00:28 34.26274 -76.46742 32001 ft 463 kts 42°
2026-04-24 00:29 34.30829 -76.41245 32000 ft 463 kts 42°
2026-04-24 00:29 34.35399 -76.35719 31994 ft 463 kts 42°
2026-04-24 00:30 34.39962 -76.30195 31997 ft 463 kts 43°
2026-04-24 00:30 34.44476 -76.24720 31997 ft 463 kts 43°
2026-04-24 00:31 34.49021 -76.19202 31996 ft 463 kts 43°
2026-04-24 00:31 34.53576 -76.13658 31995 ft 463 kts 43°
2026-04-24 00:32 34.58124 -76.08109 31996 ft 463 kts 43°
2026-04-24 00:32 34.62628 -76.02608 31994 ft 463 kts 42°
2026-04-24 00:33 34.67192 -75.97031 31993 ft 464 kts 42°
2026-04-24 00:33 34.71716 -75.91491 31995 ft 463 kts 42°
2026-04-24 00:34 34.76260 -75.85918 31992 ft 463 kts 42°
2026-04-24 00:34 34.80770 -75.80376 31992 ft 464 kts 42°
2026-04-24 00:35 34.85305 -75.74796 31990 ft 463 kts 42°
2026-04-24 00:35 34.89844 -75.69200 31991 ft 464 kts 42°
2026-04-24 00:36 34.94372 -75.63609 31988 ft 464 kts 42°
2026-04-24 00:36 34.98900 -75.58007 31988 ft 464 kts 43°
2026-04-24 00:37 35.03426 -75.52401 31990 ft 464 kts 42°
2026-04-24 00:37 35.07986 -75.46744 31983 ft 465 kts 42°
2026-04-24 00:38 35.12489 -75.41142 31987 ft 463 kts 42°
2026-04-24 00:38 35.17013 -75.35504 31988 ft 463 kts 42°
2026-04-24 00:39 35.21513 -75.29893 31981 ft 464 kts 43°
2026-04-24 00:39 35.26025 -75.24254 31983 ft 464 kts 43°
2026-04-24 00:40 35.30531 -75.18613 31979 ft 464 kts 43°
2026-04-24 00:40 35.35224 -75.13094 31969 ft 461 kts 36°
2026-04-24 00:41 35.37855 -75.10931 31969 ft 454 kts 25°
2026-04-24 00:41 35.40754 -75.09463 31969 ft 452 kts 14°
2026-04-24 00:41 35.46897 -75.08097 31970 ft 447 kts
2026-04-24 00:42 35.53050 -75.08410 31970 ft 442 kts 351°
2026-04-24 00:42 35.59117 -75.09631 31964 ft 442 kts 348°
2026-04-24 00:43 35.65190 -75.10972 31959 ft 443 kts 348°
2026-04-24 00:43 35.71298 -75.12248 31607 ft 443 kts 349°
2026-04-24 00:44 35.74307 -75.12851 31093 ft 436 kts 349°
2026-04-24 00:44 35.77265 -75.13432 30577 ft 430 kts 349°
2026-04-24 00:44 35.80228 -75.14008 30064 ft 425 kts 349°
2026-04-24 00:44 35.83107 -75.14564 29512 ft 412 kts 349°
2026-04-24 00:45 35.85858 -75.15092 29095 ft 391 kts 349°
2026-04-24 00:45 35.88514 -75.15600 28730 ft 378 kts 349°
2026-04-24 00:45 35.91082 -75.16094 28329 ft 372 kts 349°
2026-04-24 00:45 35.93601 -75.16582 27936 ft 366 kts 349°
2026-04-24 00:46 35.96088 -75.17063 27548 ft 362 kts 349°
2026-04-24 00:46 35.98584 -75.17548 27153 ft 360 kts 349°
2026-04-24 00:46 36.01046 -75.18027 26764 ft 359 kts 349°
2026-04-24 00:46 36.03495 -75.18501 26375 ft 356 kts 349°
2026-04-24 00:47 36.05930 -75.18972 25985 ft 354 kts 349°
2026-04-24 00:47 36.08373 -75.19446 25593 ft 352 kts 349°
2026-04-24 00:47 36.10764 -75.19910 25205 ft 350 kts 349°
2026-04-24 00:47 36.13195 -75.20382 24813 ft 349 kts 349°
2026-04-24 00:48 36.15566 -75.20840 24429 ft 346 kts 349°
2026-04-24 00:48 36.17957 -75.21303 24042 ft 344 kts 349°
2026-04-24 00:48 36.20287 -75.21755 23662 ft 342 kts 349°
2026-04-24 00:48 36.22654 -75.22215 23279 ft 340 kts 349°
2026-04-24 00:49 36.24965 -75.22665 22906 ft 338 kts 349°
2026-04-24 00:49 36.27300 -75.23121 22525 ft 335 kts 349°
2026-04-24 00:49 36.29579 -75.23565 22163 ft 333 kts 349°
2026-04-24 00:49 36.31879 -75.24013 21793 ft 332 kts 349°
2026-04-24 00:50 36.34145 -75.24455 21424 ft 330 kts 349°
2026-04-24 00:50 36.36400 -75.24894 21054 ft 328 kts 349°
2026-04-24 00:50 36.38658 -75.25333 20680 ft 326 kts 349°
2026-04-24 00:50 36.40877 -75.25766 20317 ft 324 kts 349°
2026-04-24 00:51 36.43092 -75.26199 20015 ft 320 kts 349°
2026-04-24 00:51 36.45303 -75.26631 19977 ft 318 kts 349°
2026-04-24 00:51 36.47495 -75.27062 19963 ft 322 kts 349°
2026-04-24 00:51 36.49721 -75.27498 19959 ft 322 kts 349°
2026-04-24 00:52 36.51920 -75.27929 19963 ft 322 kts 349°
2026-04-24 00:52 36.54145 -75.28365 19962 ft 321 kts 349°
2026-04-24 00:52 36.56328 -75.28792 19961 ft 321 kts 349°
2026-04-24 00:52 36.58551 -75.29227 19960 ft 322 kts 349°
2026-04-24 00:53 36.60769 -75.29662 19963 ft 320 kts 349°
2026-04-24 00:53 36.62960 -75.30093 19959 ft 321 kts 349°
2026-04-24 00:53 36.65186 -75.30531 19957 ft 321 kts 349°
2026-04-24 00:53 36.67380 -75.30962 19959 ft 321 kts 349°
2026-04-24 00:54 36.69600 -75.31399 19962 ft 322 kts 349°
2026-04-24 00:54 36.71792 -75.31831 19958 ft 322 kts 349°
2026-04-24 00:54 36.74015 -75.32267 19957 ft 321 kts 349°
2026-04-24 00:54 36.76232 -75.32703 19963 ft 321 kts 349°
2026-04-24 00:55 36.78415 -75.33133 19963 ft 321 kts 349°
2026-04-24 00:55 36.80631 -75.33557 19963 ft 320 kts 350°
2026-04-24 00:55 36.82869 -75.33696 19959 ft 323 kts
2026-04-24 00:55 36.85084 -75.33076 19961 ft 329 kts 18°
2026-04-24 00:56 36.87083 -75.31719 19968 ft 335 kts 31°
2026-04-24 00:56 36.88905 -75.29856 19959 ft 339 kts 41°
2026-04-24 00:56 36.90358 -75.27500 19961 ft 346 kts 58°
2026-04-24 00:56 36.91184 -75.24689 19964 ft 353 kts 75°
2026-04-24 00:57 36.91458 -75.21611 19966 ft 356 kts 86°
2026-04-24 00:57 36.91243 -75.18552 19955 ft 360 kts 102°
2026-04-24 00:57 36.88708 -75.13214 19962 ft 366 kts 136°
2026-04-24 00:58 36.86702 -75.11167 19957 ft 376 kts 148°
2026-04-24 00:58 36.84335 -75.09838 19962 ft 367 kts 168°
2026-04-24 00:58 36.81873 -75.09251 19970 ft 357 kts 174°
2026-04-24 00:58 36.79408 -75.08817 19968 ft 359 kts 175°
2026-04-24 00:59 36.76918 -75.08395 19961 ft 359 kts 174°
2026-04-24 00:59 36.74444 -75.07961 19961 ft 359 kts 174°
2026-04-24 00:59 36.71985 -75.07512 19968 ft 359 kts 174°
2026-04-24 00:59 36.69518 -75.07050 19969 ft 359 kts 174°
2026-04-24 01:00 36.67035 -75.06575 19964 ft 359 kts 174°
2026-04-24 01:00 36.64579 -75.06099 19962 ft 359 kts 173°
2026-04-24 01:00 36.62111 -75.05617 19968 ft 359 kts 173°
2026-04-24 01:00 36.59633 -75.05132 19960 ft 359 kts 173°
2026-04-24 01:01 36.57187 -75.04655 19964 ft 358 kts 174°
2026-04-24 01:01 36.54704 -75.04410 19965 ft 356 kts 184°
2026-04-24 01:01 36.52269 -75.04907 19963 ft 349 kts 203°
2026-04-24 01:01 36.50144 -75.06300 19969 ft 343 kts 221°
2026-04-24 01:02 36.48441 -75.08300 19967 ft 337 kts 234°
2026-04-24 01:02 36.47081 -75.10669 19968 ft 334 kts 243°
2026-04-24 01:02 36.46074 -75.13208 19952 ft 329 kts 255°
2026-04-24 01:02 36.45710 -75.15990 19962 ft 323 kts 274°
2026-04-24 01:03 36.46029 -75.18735 19971 ft 321 kts 287°
2026-04-24 01:03 36.46682 -75.21351 19961 ft 320 kts 291°
2026-04-24 01:03 36.47579 -75.23859 19956 ft 318 kts 303°
2026-04-24 01:03 36.49068 -75.25893 19968 ft 317 kts 322°
2026-04-24 01:04 36.50980 -75.27257 19969 ft 320 kts 336°
2026-04-24 01:04 36.53109 -75.28148 19965 ft 320 kts 343°
2026-04-24 01:04 36.55279 -75.28726 19962 ft 322 kts 348°
2026-04-24 01:04 36.57499 -75.29171 19962 ft 321 kts 349°
2026-04-24 01:05 36.59695 -75.29571 19961 ft 321 kts 349°
2026-04-24 01:05 36.61929 -75.29974 19961 ft 322 kts 349°
2026-04-24 01:05 36.64136 -75.30382 19961 ft 322 kts 349°
2026-04-24 01:05 36.66363 -75.30803 19958 ft 322 kts 349°
2026-04-24 01:06 36.68571 -75.31226 19956 ft 321 kts 349°
2026-04-24 01:06 36.70775 -75.31651 19955 ft 322 kts 349°
2026-04-24 01:06 36.72999 -75.32083 19954 ft 321 kts 349°
2026-04-24 01:06 36.75212 -75.32513 19949 ft 321 kts 349°
2026-04-24 01:07 36.77407 -75.32941 19957 ft 322 kts 349°